Location: Unspecified
(36.5600°N, 136.6600°E)
Time: 18:08:38
(UTC+09:00)

BlueWalker 3 - Pass Details

Date: 21 June 2024
Orbit: 480 x 491 km, 53.2° (Epoch: 19 July)

Event Time Altitude Azimuth Distance (km) Brightness Sun altitude
Rises 03:02:50 0° 317° (NW) 2,537 5.6 -15.5°
Reaches altitude 10° 03:05:02 10° 322° (NW) 1,656 4.6 -15.1°
Maximum altitude 03:08:42 54° 41° (NE) 587 2.6 -14.6°
Drops below altitude 10° 03:12:21 10° 119° (ESE) 1,652 4.8 -14.1°
Sets 03:14:33 0° 124° (SE) 2,531 5.7 -13.8°
